Tracking 29781 objects as of 16-Oct-2024
HD Live streaming from Space Station
objects crossing your sky now

GONETS M 17

Track GONETS M 17 now!
10-day predictions


NORAD ID: 46486
Int'l Code: 2020-068A
Perigee: 1,484.5 km
Apogee: 1,518.7 km
Inclination: 82.5 °
Period: 115.9 minutes
Semi major axis: 7872 km
RCS: Unknown
Launch date: September 28, 2020
Source: Commonwealth of Independent States (former USSR) (CIS)
Launch site: PLESETSK MISSILE AND SPACE COMPLEX (PKMTR)
Your satellite tracking list
Your tracking list is empty




NASA's NSSDC Master Catalog

Two Line Element Set (TLE):
1 46486U 20068A   24289.84188362  .00000052  00000-0  30601-3 0  9999
2 46486  82.5034   6.5591 0021734 283.7722  76.0939 12.42878918183642
Source of the keplerian elements: AFSPC